PBO Station Position Time Series. Reference Frame : NAM14
Format Version,1.1.0
4-character ID,SPN1
Station name,Mt_Hamilton_Bard
Begin Date, 2001-01-30
End Date, 2008-04-07
Release Date, 2019-08-30
Reference position, 47.5183556301 North Latitude, -117.4236992927 East Longitude, 719.92844 meters elevation,
Date, North (mm), East (mm), Vertical (mm), North Std. Deviation (mm), East Std. Deviation (mm),              Vertical Std. Deviation (mm), Quality,
2001-01-30,0.00, 0.00, 0.00, 5.47, 4.29, 19.49, repro,
2001-01-31,1.41, 3.66, 5.65, 2.42, 1.77, 7.94, repro,
2001-02-01,1.31, 3.64, 1.18, 2.40, 1.68, 7.69, repro,
2001-02-02,0.02, 2.88, 7.55, 2.37, 1.68, 7.63, repro,
2001-02-03,0.85, 3.03, 6.57, 2.35, 1.67, 7.54, repro,
2001-02-04,1.35, 2.43, 14.48, 2.40, 1.73, 7.81, repro,
2001-02-05,1.90, 3.44, 4.49, 2.38, 1.68, 7.61, repro,
2001-02-06,2.22, 3.97, -3.69, 2.36, 1.67, 7.57, repro,
2001-02-07,1.37, 3.04, -0.39, 2.37, 1.68, 7.57, repro,
2001-02-08,-0.05, 3.99, 0.40, 2.36, 1.71, 7.74, repro,
2001-02-09,0.49, 4.15, 2.24, 2.40, 1.73, 7.81, repro,
2001-02-10,1.76, 3.63, 7.61, 2.35, 1.69, 7.62, repro,
2001-02-11,2.00, 3.82, 9.02, 2.45, 1.76, 7.80, repro,
2001-02-12,-0.64, 3.13, 2.22, 2.47, 1.76, 7.86, repro,
2001-02-13,0.92, 3.49, 8.08, 2.34, 1.68, 7.60, repro,
2001-02-14,1.66, 4.61, 4.90, 2.40, 1.70, 7.71, repro,
2001-02-15,1.65, 3.09, 4.76, 2.35, 1.68, 7.65, repro,
2001-02-16,0.51, 3.95, -3.14, 2.38, 1.68, 7.59, repro,
2001-02-17,0.72, 4.73, -0.64, 2.41, 1.67, 7.52, repro,
2001-02-18,-0.22, 4.44, 9.74, 2.35, 1.70, 7.57, repro,
2001-02-19,2.39, 3.66, 7.52, 2.35, 1.66, 7.46, repro,
2001-02-20,3.54, 4.86, 3.64, 2.53, 1.82, 8.05, repro,
2001-02-21,1.41, 2.01, 0.76, 2.45, 1.76, 7.83, repro,
2001-02-22,0.14, 4.01, 2.29, 2.33, 1.67, 7.48, repro,
2001-02-23,0.12, 3.70, 4.64, 2.36, 1.70, 7.55, repro,
2001-02-24,1.07, 3.92, 11.89, 2.60, 1.93, 8.32, repro,
2001-02-25,0.76, 4.17, 1.69, 2.46, 1.78, 7.86, repro,
2001-02-26,2.37, 2.89, -0.69, 2.42, 1.82, 8.09, repro,
2001-02-27,1.62, 3.37, -2.78, 2.41, 1.72, 7.76, repro,
2001-02-28,0.80, 3.34, 5.04, 2.61, 1.82, 8.20, repro,
2001-03-01,-0.44, 3.33, 19.03, 2.75, 1.94, 8.61, repro,
2001-03-02,-1.75, 0.51, 9.76, 2.64, 1.98, 8.75, repro,
2001-03-03,1.18, 1.27, 6.46, 2.43, 1.75, 7.85, repro,
2001-03-04,1.13, 2.82, 1.14, 2.44, 1.70, 7.61, repro,
2001-03-05,0.90, 3.18, -0.54, 2.48, 1.80, 7.97, repro,
2001-03-06,0.25, 2.11, -0.81, 2.35, 1.67, 7.51, repro,
2001-03-07,0.51, 1.43, 9.43, 2.34, 1.67, 7.53, repro,
2001-03-08,-0.96, 1.91, 8.84, 2.33, 1.69, 7.60, repro,
2001-03-09,-1.89, 1.59, 7.78, 2.47, 1.75, 7.84, repro,
2001-03-10,-1.96, 1.67, 2.17, 2.46, 1.77, 7.90, repro,
2001-03-11,-0.45, 0.68, 9.25, 2.46, 1.75, 7.81, repro,
2001-03-12,-2.15, 2.01, 8.71, 2.56, 1.78, 8.14, repro,
2001-03-13,-2.29, 1.46, 8.73, 2.48, 1.78, 8.01, repro,
2001-03-14,-2.69, 1.64, 14.60, 2.37, 1.71, 7.73, repro,
2001-03-15,-3.51, 3.04, 3.06, 2.34, 1.70, 7.53, repro,
2001-03-16,-2.05, 1.31, 8.91, 2.35, 1.73, 7.70, repro,
2001-03-17,-2.80, 1.88, 1.73, 2.37, 1.72, 7.65, repro,
2001-03-18,-2.04, 2.71, -0.08, 2.33, 1.68, 7.54, repro,
2001-03-19,-1.60, 2.06, 0.86, 2.35, 1.70, 7.62, repro,
2001-03-20,-1.95, 1.50, 0.62, 2.53, 1.80, 8.36, repro,
2001-03-21,-0.79, 1.51, 0.54, 2.48, 1.79, 7.88, repro,
2001-03-22,-1.53, 2.47, -0.56, 2.32, 1.67, 7.49, repro,
2001-03-23,-3.18, 3.12, 5.13, 2.34, 1.67, 7.52, repro,
2001-03-24,-2.26, 2.13, 0.68, 2.34, 1.69, 7.55, repro,
2001-03-25,-3.46, 2.26, 7.57, 2.34, 1.67, 7.53, repro,
2001-03-26,-3.93, 1.39, 3.96, 2.39, 1.70, 7.59, repro,
2001-03-27,-2.12, 2.52, 2.64, 2.42, 1.70, 7.72, repro,
2001-03-28,-2.34, 1.18, 7.50, 2.47, 1.72, 7.86, repro,
2001-03-29,-2.60, 1.62, 4.37, 2.36, 1.70, 7.68, repro,
2001-03-30,-2.28, 2.04, 3.27, 2.32, 1.69, 7.55, repro,
2001-03-31,-2.38, 4.05, 1.61, 2.85, 2.09, 9.36, repro,
2001-04-01,-2.89, 1.44, 8.44, 2.34, 1.67, 7.49, repro,
2001-04-02,-1.72, 1.71, 17.70, 2.36, 1.72, 7.73, repro,
2001-04-03,-2.64, 0.38, 10.49, 2.41, 1.74, 7.77, repro,
2001-04-04,-2.27, 2.07, 4.75, 2.36, 1.69, 7.68, repro,
2001-04-05,-3.11, 1.27, 8.20, 2.46, 1.76, 7.89, repro,
2001-04-06,-4.17, 0.64, 15.64, 2.32, 1.66, 7.55, repro,
2001-04-07,-1.07, 1.10, 19.72, 2.39, 1.72, 7.92, repro,
2001-04-08,-4.40, 0.81, 16.64, 2.35, 1.70, 7.81, repro,
2001-04-09,-4.58, 1.55, 10.22, 2.44, 1.76, 8.08, repro,
2001-04-10,-1.56, 1.92, 7.60, 2.51, 1.77, 8.24, repro,
2001-04-11,-1.98, 4.95, 18.70, 2.50, 1.81, 8.27, repro,
2001-04-12,-3.56, -0.55, 10.80, 2.48, 1.77, 8.42, repro,
2001-04-13,-3.91, 0.51, 10.42, 2.39, 1.71, 7.94, repro,
2001-04-14,-4.58, 0.53, 5.96, 2.40, 1.74, 8.00, repro,
2001-04-15,-3.19, 0.85, 5.32, 2.44, 1.80, 8.16, repro,
2001-04-16,-6.52, 0.73, 6.65, 2.48, 1.80, 8.21, repro,
2001-04-17,-5.28, 1.27, 15.81, 2.56, 1.78, 8.30, repro,
2001-04-18,-5.07, 1.90, 3.49, 2.72, 1.87, 9.01, repro,
2001-04-19,-5.70, 1.78, 17.70, 2.41, 1.69, 7.88, repro,
2001-04-20,-4.38, 1.24, 15.72, 2.39, 1.68, 7.70, repro,
2001-04-21,-3.64, 1.24, 5.19, 2.52, 1.83, 8.40, repro,
2001-04-22,-4.75, -1.02, 9.53, 2.48, 1.77, 8.23, repro,
2001-04-23,-4.90, 1.53, 8.22, 2.40, 1.73, 7.94, repro,
2001-04-24,-5.59, 0.87, 11.60, 2.41, 1.72, 7.90, repro,
2001-04-25,-7.01, 0.32, 12.77, 2.68, 1.93, 8.83, repro,
2001-04-26,-4.74, 0.95, 8.01, 2.36, 1.69, 7.76, repro,
2001-04-27,-5.59, 2.60, 13.04, 2.33, 1.65, 7.64, repro,
2001-04-28,-8.66, 1.78, 24.86, 2.38, 1.71, 7.87, repro,
2001-04-29,-5.76, 0.38, 17.11, 2.46, 1.73, 7.93, repro,
2001-04-30,-8.37, -0.32, 11.43, 2.46, 1.77, 8.02, repro,
2001-05-01,-5.88, 0.69, 6.17, 2.39, 1.70, 7.60, repro,
2001-05-02,-5.58, -0.27, 7.98, 2.28, 1.63, 7.36, repro,
2001-05-03,-4.32, 0.59, 4.66, 2.48, 1.76, 8.04, repro,
2001-05-04,-4.41, 1.14, 8.77, 2.36, 1.67, 7.63, repro,
2001-05-05,-5.50, -0.51, 10.32, 2.42, 1.75, 7.86, repro,
2001-05-06,-3.56, 0.65, 5.71, 2.34, 1.69, 7.53, repro,
2001-05-07,-4.29, 0.55, 4.58, 2.34, 1.73, 7.69, repro,
2001-05-08,-5.29, -0.47, 8.46, 2.44, 1.76, 7.92, repro,
2001-05-09,-3.95, -0.57, 8.27, 2.36, 1.68, 7.67, repro,
2001-05-10,-3.78, 0.20, 8.55, 2.30, 1.64, 7.47, repro,
2001-05-11,-4.94, 1.13, 3.66, 2.34, 1.65, 7.47, repro,
2001-05-12,-3.58, 0.79, 14.34, 2.44, 1.78, 8.11, repro,
2001-05-13,-3.40, 0.64, 12.97, 2.41, 1.73, 7.77, repro,
2001-05-14,-3.50, 0.83, 8.77, 2.41, 1.71, 7.85, repro,
2001-05-15,-4.25, -0.47, 19.64, 2.42, 1.73, 7.90, repro,
2001-05-16,-5.00, -1.51, 10.10, 2.32, 1.67, 7.52, repro,
2001-05-17,-4.06, -0.02, 6.44, 2.47, 1.79, 8.03, repro,
2001-05-18,-3.83, -0.51, 10.25, 2.33, 1.68, 7.55, repro,
2001-05-19,-3.29, -1.12, 4.45, 2.29, 1.61, 7.31, repro,
2001-05-20,-3.99, 0.40, 10.64, 2.31, 1.65, 7.48, repro,
2001-05-21,-4.75, 0.69, 14.22, 2.37, 1.72, 7.74, repro,
2001-05-22,-5.78, 1.06, 11.76, 2.62, 1.88, 8.61, repro,
2001-05-23,-4.69, 0.95, 13.72, 2.34, 1.68, 7.55, repro,
2001-05-24,-3.72, 0.20, 14.85, 2.33, 1.66, 7.58, repro,
2001-05-25,-4.73, 0.82, 16.94, 2.31, 1.64, 7.42, repro,
2001-05-26,-4.14, 1.52, 14.80, 2.31, 1.65, 7.46, repro,
2001-05-27,-4.54, 0.84, 15.67, 2.32, 1.65, 7.44, repro,
2001-05-28,-4.68, 0.80, 14.59, 2.52, 1.82, 8.32, repro,
2001-05-29,-5.41, -0.16, 9.08, 2.47, 1.76, 8.11, repro,
2001-05-30,-4.78, 0.04, 6.72, 2.38, 1.68, 7.55, repro,
2001-05-31,-3.61, 2.23, 13.57, 2.31, 1.66, 7.56, repro,
2001-06-01,-4.79, 1.56, 14.00, 2.33, 1.67, 7.57, repro,
2001-06-02,-2.28, 0.49, 16.16, 2.76, 1.97, 8.93, repro,
2001-06-03,-3.12, 0.43, 17.54, 2.30, 1.66, 7.44, repro,
2001-06-04,-3.42, 0.23, 17.27, 2.37, 1.69, 7.69, repro,
2001-06-05,-3.14, 1.69, 15.96, 2.36, 1.67, 7.55, repro,
2001-06-06,-3.42, 1.22, 9.44, 2.35, 1.69, 7.64, repro,
2001-06-07,-4.91, 0.40, 12.73, 2.33, 1.71, 7.71, repro,
2001-06-08,-4.29, 0.89, 12.46, 2.36, 1.71, 7.72, repro,
2001-06-09,-4.75, 0.84, 17.13, 2.32, 1.64, 7.46, repro,
2001-06-10,-2.34, 0.71, 15.43, 2.35, 1.68, 7.58, repro,
2001-06-11,-4.12, 0.57, 15.27, 2.28, 1.62, 7.35, repro,
2001-06-12,-2.88, 0.60, 10.25, 2.33, 1.67, 7.50, repro,
2001-06-13,-3.72, 0.74, 11.01, 2.38, 1.69, 7.57, repro,
2001-06-14,-1.59, 0.24, 17.50, 2.84, 1.91, 8.49, repro,
2001-06-15,-3.38, 0.06, 10.21, 2.32, 1.65, 7.42, repro,
2001-06-16,-2.76, 1.26, 13.49, 2.31, 1.63, 7.40, repro,
2001-06-17,-2.39, 1.07, 7.75, 2.48, 1.74, 7.81, repro,
2001-06-18,-2.63, 0.94, 6.56, 2.39, 1.70, 7.70, repro,
2001-06-19,-4.86, 0.25, 7.77, 2.46, 1.78, 7.98, repro,
2001-06-20,-1.37, 0.47, 6.10, 2.39, 1.74, 7.78, repro,
2001-06-21,-4.48, 1.58, 11.62, 2.32, 1.69, 7.59, repro,
2001-06-22,-3.97, -0.41, 13.58, 2.57, 1.87, 8.17, repro,
2001-06-23,-4.05, 1.65, 14.19, 2.34, 1.67, 7.59, repro,
2001-06-24,-5.11, 0.96, 18.53, 2.30, 1.66, 7.46, repro,
2001-06-25,-4.74, 0.43, 10.33, 2.35, 1.68, 7.56, repro,
2001-06-26,-4.70, 0.64, 9.34, 2.33, 1.67, 7.43, repro,
2001-06-27,-3.06, 1.72, 11.66, 2.34, 1.67, 7.50, repro,
2001-06-28,-5.12, 1.96, 15.42, 2.37, 1.69, 7.59, repro,
2001-06-29,-4.14, 0.46, 10.72, 2.30, 1.64, 7.40, repro,
2001-06-30,-5.45, 0.54, 13.49, 2.33, 1.65, 7.40, repro,
2001-07-01,-5.83, 1.00, 14.10, 2.31, 1.66, 7.46, repro,
2001-07-02,-4.91, 1.23, 12.36, 2.32, 1.65, 7.54, repro,
2001-07-03,-3.74, 1.71, 13.68, 2.79, 1.86, 8.39, repro,
2001-07-04,-5.79, 0.24, 6.50, 2.34, 1.68, 7.52, repro,
2001-07-05,-6.63, 0.57, 22.01, 2.32, 1.65, 7.43, repro,
2001-07-06,-7.24, 0.70, 22.45, 2.32, 1.63, 7.44, repro,
2001-07-07,-5.86, 0.87, 11.59, 2.38, 1.71, 7.65, repro,
2001-07-08,-6.66, -0.59, 17.06, 2.38, 1.70, 7.63, repro,
2001-07-09,-6.43, 2.69, 6.10, 2.31, 1.67, 7.49, repro,
2001-07-10,-3.73, 2.73, 8.72, 2.54, 1.82, 8.18, repro,
2001-07-11,-5.79, 1.16, 16.39, 2.32, 1.65, 7.48, repro,
2001-07-12,-5.21, 1.24, 10.92, 2.38, 1.66, 7.57, repro,
2001-07-13,-4.02, 0.71, 14.22, 2.40, 1.71, 7.60, repro,
2001-07-14,-4.29, 1.20, 10.50, 2.43, 1.71, 7.70, repro,
2001-07-15,-4.27, 0.85, 22.00, 2.51, 1.75, 7.91, repro,
2001-07-16,-4.10, 1.21, 13.44, 2.33, 1.66, 7.47, repro,
2001-07-17,-5.50, 0.89, 13.47, 2.30, 1.63, 7.31, repro,
2001-07-18,-4.35, -0.26, 11.82, 2.35, 1.68, 7.46, repro,
2001-07-19,-5.23, 1.64, 8.04, 2.31, 1.64, 7.39, repro,
2001-07-20,-2.67, 0.57, 6.36, 2.43, 1.67, 7.50, repro,
2001-07-21,-4.35, 1.24, 8.47, 2.28, 1.63, 7.31, repro,
2001-07-22,-2.79, 0.76, 8.33, 2.31, 1.64, 7.42, repro,
2001-07-23,-4.83, -0.49, 11.21, 2.34, 1.68, 7.48, repro,
2001-07-24,-5.53, 0.96, 17.62, 2.30, 1.63, 7.33, repro,
2001-07-25,-4.97, 0.74, 18.22, 2.39, 1.72, 7.75, repro,
2001-07-26,-5.58, 0.22, 5.74, 2.61, 1.77, 8.14, repro,
2001-07-27,-4.56, 1.28, 8.66, 2.55, 1.82, 8.04, repro,
2001-07-28,-7.14, 0.35, 12.67, 2.48, 1.71, 7.74, repro,
2001-07-29,-4.33, 0.52, 7.31, 2.54, 1.81, 7.96, repro,
2001-07-30,-4.97, 0.20, 13.82, 2.52, 1.75, 7.92, repro,
2001-07-31,-5.18, 0.33, 17.78, 2.46, 1.75, 7.84, repro,
2001-08-01,-6.00, 2.18, 10.28, 2.45, 1.70, 7.70, repro,
2001-08-02,-2.03, 0.73, 6.09, 2.44, 1.70, 7.65, repro,
2001-08-03,-5.57, 1.35, 16.66, 2.50, 1.74, 7.93, repro,
2001-08-04,-7.41, 0.62, 27.84, 2.50, 1.74, 7.82, repro,
2001-08-05,-4.49, 0.37, 16.08, 2.43, 1.72, 7.64, repro,
2001-08-06,-5.24, 0.55, 13.67, 2.43, 1.71, 7.55, repro,
2001-08-07,-5.99, -0.03, 18.23, 2.52, 1.77, 7.90, repro,
2001-08-08,-6.24, 1.17, 4.97, 2.47, 1.79, 7.98, repro,
2001-08-09,-6.67, 0.51, 5.68, 2.59, 1.76, 8.03, repro,
2001-08-10,-5.52, -0.95, 14.52, 2.55, 1.75, 7.86, repro,
2001-08-11,-4.50, 1.72, 8.10, 2.43, 1.68, 7.55, repro,
2001-08-12,-3.87, 2.07, 8.61, 2.45, 1.66, 7.55, repro,
2001-08-13,-5.83, 1.94, 13.17, 2.51, 1.72, 7.75, repro,
2001-08-14,-5.96, 0.61, 7.64, 2.57, 1.82, 8.24, repro,
2001-08-15,-7.59, 1.90, 15.32, 2.54, 1.77, 7.96, repro,
2001-08-16,-7.25, -0.84, 14.05, 2.54, 1.79, 7.91, repro,
2001-08-17,-6.51, 0.87, 11.86, 2.91, 2.02, 9.21, repro,
2001-08-18,-6.14, 0.14, 4.62, 2.50, 1.74, 7.85, repro,
2001-08-19,-5.12, -0.55, 8.82, 2.50, 1.74, 7.82, repro,
2001-08-20,-5.65, -0.48, 16.83, 2.69, 1.83, 8.16, repro,
2001-08-21,-6.59, 0.00, 12.89, 2.61, 1.79, 8.16, repro,
2001-08-22,-5.74, 1.32, 14.62, 2.45, 1.70, 7.60, repro,
2001-08-23,-6.08, 1.13, 7.35, 2.48, 1.71, 7.68, repro,
2001-08-24,-4.55, -0.01, 11.00, 2.50, 1.72, 7.70, repro,
2001-08-25,-5.62, -0.70, 13.87, 2.53, 1.72, 7.80, repro,
2001-08-26,-5.56, -1.05, 11.13, 2.69, 1.85, 8.30, repro,
2001-08-27,-3.20, -0.74, 9.31, 2.59, 1.78, 7.94, repro,
2001-08-28,-6.45, 0.71, 15.30, 2.55, 1.76, 7.81, repro,
2001-08-29,-4.78, -0.77, 10.79, 2.71, 1.83, 8.27, repro,
2001-08-30,-6.09, 0.28, 10.05, 2.65, 1.80, 8.29, repro,
2001-08-31,-4.98, -1.05, 27.01, 2.80, 1.89, 8.54, repro,
2001-09-01,-7.34, 2.46, 16.01, 2.48, 1.71, 7.74, repro,
2001-09-02,-5.77, -0.42, 17.66, 2.54, 1.78, 8.01, repro,
2001-09-03,-6.10, 1.56, 13.85, 2.53, 1.73, 7.88, repro,
2001-09-04,-6.94, -0.19, 9.23, 2.65, 1.86, 8.67, repro,
2001-09-05,-5.96, -0.78, 9.39, 2.74, 1.98, 8.68, repro,
2001-09-06,-5.80, 0.63, 14.46, 2.43, 1.69, 7.59, repro,
2001-09-07,-5.86, -1.02, 10.39, 2.33, 1.66, 7.42, repro,
2001-09-08,-4.76, 1.30, 12.12, 2.35, 1.67, 7.41, repro,
2001-09-09,-4.06, -0.40, 15.27, 2.40, 1.72, 7.60, repro,
2001-09-10,-5.48, 0.73, 12.46, 2.31, 1.65, 7.35, repro,
2001-09-11,-6.29, -0.06, 10.17, 2.45, 1.75, 7.86, repro,
2001-09-12,-6.64, 0.14, 16.30, 2.49, 1.83, 8.12, repro,
2001-09-13,-6.08, 1.65, 14.57, 2.83, 1.95, 8.67, repro,
2001-09-14,-5.05, 0.18, 11.81, 2.38, 1.66, 7.41, repro,
2001-09-15,-4.56, 1.95, 16.99, 2.39, 1.69, 7.63, repro,
2001-09-16,-6.10, 0.48, 18.90, 2.38, 1.67, 7.59, repro,
2001-09-17,-4.36, -0.16, 19.40, 2.43, 1.69, 7.62, repro,
2001-09-18,-6.33, 1.36, 20.87, 2.44, 1.69, 7.67, repro,
2001-09-19,-4.05, 0.50, 14.11, 2.43, 1.73, 7.83, repro,
2001-09-20,-4.93, 1.10, 12.75, 2.48, 1.78, 7.94, repro,
2001-09-21,-5.38, 1.81, 13.31, 2.38, 1.70, 7.66, repro,
2001-09-22,-5.24, 0.42, 13.08, 2.35, 1.65, 7.42, repro,
2001-09-23,-4.95, 1.06, 15.05, 2.35, 1.66, 7.52, repro,
2001-09-24,-3.64, 2.17, 17.43, 2.39, 1.69, 7.48, repro,
2001-09-25,-4.98, -0.77, 20.67, 2.65, 1.86, 8.53, repro,
2001-09-26,-4.28, 0.54, 11.60, 2.71, 2.00, 8.86, repro,
2001-09-27,-6.57, -3.46, 15.52, 3.40, 2.67, 11.27, repro,
2001-09-28,-4.28, 1.67, 23.46, 2.75, 1.87, 8.13, repro,
2001-09-29,-6.70, 0.51, 20.52, 3.17, 2.40, 10.58, repro,
2001-09-30,-4.57, 1.11, 20.77, 3.27, 2.30, 10.73, repro,
2001-10-01,-0.07, 1.50, 14.56, 4.32, 2.64, 11.69, repro,
2001-10-02,-2.34, -0.61, 13.08, 4.39, 3.15, 12.60, repro,
2001-10-03,-2.41, -0.01, 14.77, 3.33, 2.18, 9.87, repro,
2001-10-04,-6.45, 0.73, 21.82, 3.24, 2.07, 9.75, repro,
2001-10-05,-5.67, 1.03, 20.97, 3.62, 2.61, 11.71, repro,
2001-10-06,-4.36, 1.68, 26.36, 2.59, 1.80, 7.88, repro,
2001-10-07,-5.81, 1.56, 22.96, 2.52, 1.81, 8.09, repro,
2001-10-08,-6.19, 1.76, 25.79, 2.66, 1.81, 8.39, repro,
2001-10-09,-5.50, 1.28, 21.24, 2.88, 1.95, 9.25, repro,
2001-10-10,-6.81, 1.63, 15.15, 2.40, 1.66, 7.49, repro,
2001-10-11,-5.95, 0.68, 22.48, 2.35, 1.65, 7.38, repro,
2001-10-12,-7.48, 1.81, 16.69, 2.38, 1.66, 7.52, repro,
2001-10-13,-6.11, 1.07, 23.74, 2.39, 1.68, 7.54, repro,
2001-10-14,-5.16, 0.76, 19.53, 2.44, 1.71, 7.68, repro,
2001-10-15,-5.50, -0.77, 14.22, 4.55, 3.57, 15.12, repro,
2001-10-16,-6.06, 2.25, 17.97, 2.49, 1.73, 7.74, repro,
2001-10-17,-5.00, 1.53, 12.89, 2.65, 1.82, 8.12, repro,
2001-10-18,-9.41, 1.53, 19.37, 2.53, 1.73, 7.66, repro,
2001-10-19,-6.26, 1.56, 19.63, 2.76, 1.90, 8.54, repro,
2001-10-20,-7.03, 1.73, 22.35, 2.41, 1.64, 7.45, repro,
2001-10-21,-8.33, 1.02, 26.97, 2.63, 1.92, 8.55, repro,
2001-10-22,-6.23, 0.25, 23.60, 2.70, 1.84, 8.38, repro,
2001-10-23,-8.44, -0.76, 28.56, 2.45, 1.68, 7.48, repro,
2001-10-24,-7.75, 0.32, 20.11, 2.48, 1.74, 7.74, repro,
2001-10-25,-6.56, 0.56, 17.44, 2.66, 1.85, 8.19, repro,
2001-10-26,-7.47, 1.68, 17.74, 2.56, 1.77, 7.87, repro,
2001-10-27,-9.09, 1.14, 24.67, 2.58, 1.82, 8.07, repro,
2001-10-28,-8.49, -0.52, 16.29, 2.98, 1.97, 9.30, repro,
2001-10-29,-5.05, 1.41, 11.98, 2.52, 1.74, 7.88, repro,
2001-10-30,-5.56, 0.74, 12.51, 2.46, 1.73, 7.79, repro,
2001-10-31,-7.64, -0.19, 28.24, 2.63, 1.82, 8.20, repro,
2001-11-01,-6.76, 1.11, 23.46, 3.19, 2.20, 9.71, repro,
2001-11-02,-6.87, 1.13, 21.03, 2.59, 1.82, 7.96, repro,
2001-11-03,-5.01, -8.95, 6.09, 6.31, 4.92, 23.10, repro,
2001-11-04,-5.37, -1.09, 12.68, 2.59, 1.78, 8.08, repro,
2001-11-05,-8.31, 1.15, 22.04, 2.81, 1.98, 8.92, repro,
2001-11-06,-8.05, -0.34, 17.78, 3.12, 2.15, 9.56, repro,
2001-11-07,-5.17, 1.32, -2.43, 2.47, 1.74, 7.91, repro,
2001-11-08,-6.87, 1.83, 14.26, 2.62, 1.82, 8.32, repro,
2001-11-09,-3.45, -0.27, 12.13, 2.76, 1.99, 8.69, repro,
2001-11-10,-6.66, 1.55, 12.62, 2.64, 1.91, 8.56, repro,
2001-11-11,-4.13, 0.69, 12.21, 2.38, 1.65, 7.40, repro,
2001-11-12,-7.95, 1.14, 14.99, 2.41, 1.68, 7.42, repro,
2001-11-13,-5.48, 2.22, 21.10, 2.57, 1.80, 8.03, repro,
2001-11-14,-5.99, -0.19, 23.85, 2.48, 1.67, 7.61, repro,
2001-11-15,-4.59, -0.01, 19.25, 2.39, 1.69, 7.59, repro,
2001-11-16,-9.75, 0.17, 16.39, 2.60, 1.88, 8.34, repro,
2001-11-17,-8.16, 1.73, 9.65, 2.41, 1.66, 7.50, repro,
2001-11-18,-5.34, 1.59, 4.12, 2.41, 1.75, 7.80, repro,
2001-11-19,-4.72, 1.40, 9.39, 2.49, 1.78, 8.08, repro,
2001-11-20,-4.74, -0.76, 13.97, 2.80, 1.98, 9.19, repro,
2001-11-21,-4.82, 2.19, 19.08, 2.67, 1.92, 8.62, repro,
2001-11-22,-6.08, 0.69, 22.59, 2.67, 1.92, 8.59, repro,
2001-11-23,-5.08, 1.39, 15.86, 2.66, 1.90, 8.52, repro,
2001-11-24,-3.55, 0.02, 8.21, 3.04, 2.07, 9.72, repro,
2001-11-25,-6.41, 2.27, 12.62, 3.59, 2.67, 12.17, repro,
2001-11-26,-3.64, 0.65, -1.22, 2.92, 2.13, 9.07, repro,
2001-11-27,-4.40, 2.14, 4.00, 2.48, 1.72, 7.84, repro,
2001-11-28,-5.35, 2.37, 8.40, 2.55, 1.86, 8.42, repro,
2001-11-29,-7.37, 0.99, 16.07, 2.42, 1.66, 7.50, repro,
2001-11-30,-6.34, 1.73, 16.30, 2.49, 1.79, 8.00, repro,
2001-12-01,-1.62, 0.38, 6.38, 2.36, 1.71, 7.60, repro,
2001-12-02,-5.08, 1.59, 13.18, 2.54, 1.88, 8.26, repro,
2001-12-03,-5.49, 3.08, 8.44, 2.43, 1.74, 7.79, repro,
2001-12-04,-5.62, 0.62, 7.78, 2.44, 1.68, 7.69, repro,
2001-12-05,-6.45, -0.34, 14.90, 2.48, 1.76, 7.89, repro,
2001-12-06,-6.23, 2.43, 8.37, 2.37, 1.68, 7.48, repro,
2001-12-07,-4.76, 1.16, -1.67, 2.37, 1.68, 7.43, repro,
2001-12-08,-5.42, 0.92, 1.62, 2.36, 1.68, 7.46, repro,
2001-12-09,-5.85, 0.51, 8.48, 2.60, 1.80, 8.16, repro,
2001-12-10,-5.30, -0.08, 16.89, 2.56, 1.76, 8.08, repro,
2001-12-11,-4.15, 0.48, 7.01, 2.52, 1.76, 7.86, repro,
2001-12-12,-3.88, 1.48, 2.67, 2.61, 1.78, 8.03, repro,
2001-12-13,-5.30, 1.17, 12.41, 2.49, 1.70, 7.61, repro,
2001-12-14,-3.52, 0.72, 14.78, 2.36, 1.69, 7.48, repro,
2001-12-15,-5.23, 1.29, 10.34, 2.35, 1.62, 7.30, repro,
2001-12-16,-5.48, 0.59, 2.84, 2.46, 1.78, 7.92, repro,
2001-12-17,-4.69, 0.86, 5.69, 2.42, 1.74, 7.77, repro,
2001-12-18,-6.57, 0.50, 1.32, 2.46, 1.78, 7.89, repro,
2001-12-19,-4.38, -0.60, -0.26, 2.44, 1.73, 7.69, repro,
2001-12-20,-5.15, 1.27, 4.44, 2.42, 1.71, 7.67, repro,
2001-12-21,-6.76, 0.95, 1.27, 2.42, 1.75, 7.76, repro,
2001-12-22,-5.16, 0.86, -0.18, 2.43, 1.77, 7.95, repro,
2001-12-23,-3.90, 0.59, -1.81, 2.36, 1.72, 7.65, repro,
2001-12-24,-3.27, -0.53, -20.53, 2.64, 1.95, 8.54, repro,
2001-12-25,-3.48, 0.48, -6.63, 2.34, 1.69, 7.54, repro,
2001-12-26,-3.97, 1.81, -5.60, 2.35, 1.67, 7.48, repro,
2001-12-27,-5.17, 1.03, -2.68, 2.48, 1.77, 8.09, repro,
2001-12-28,-4.59, 1.20, 4.26, 2.36, 1.69, 7.62, repro,
2001-12-29,-5.11, 1.42, -5.25, 2.33, 1.67, 7.44, repro,
2001-12-30,-4.77, 1.27, 2.21, 2.36, 1.70, 7.66, repro,
2001-12-31,-3.42, 1.69, 6.65, 2.62, 1.87, 8.37, repro,
2002-01-01,-2.86, 1.64, 3.02, 2.49, 1.78, 7.94, repro,
2002-01-02,-4.17, 2.01, 6.79, 2.52, 1.81, 8.08, repro,
2002-01-03,-4.61, 1.50, 10.87, 2.62, 1.85, 8.37, repro,
2002-01-04,-5.70, -0.34, 4.21, 2.62, 1.84, 8.12, repro,
2002-01-05,-6.15, 2.12, 4.89, 2.49, 1.80, 7.94, repro,
2002-01-06,-7.36, -0.48, 16.08, 2.45, 1.76, 7.87, repro,
2002-01-07,-7.45, 1.58, 7.41, 2.53, 1.82, 8.10, repro,
2002-01-08,-6.77, -0.15, 8.11, 2.62, 1.90, 8.51, repro,
2002-01-09,-6.59, -0.43, 11.10, 2.42, 1.74, 7.77, repro,
2002-01-10,-6.66, -0.42, 1.08, 2.62, 1.88, 8.72, repro,
2002-01-11,-6.15, 1.09, -0.32, 2.57, 1.83, 8.27, repro,
2002-01-12,-4.73, 0.47, -2.85, 2.43, 1.77, 7.91, repro,
2002-01-13,-6.02, 0.42, 4.43, 2.53, 1.83, 8.38, repro,
2002-01-14,-4.48, 0.25, 1.95, 2.45, 1.79, 8.00, repro,
2002-01-15,-6.42, 0.81, -0.74, 2.42, 1.81, 7.95, repro,
2002-01-16,-6.31, 0.69, -0.39, 2.72, 1.97, 8.58, repro,
2002-01-17,-6.19, 1.76, -0.05, 2.47, 1.86, 8.10, repro,
2002-01-18,-6.51, 0.96, -1.34, 2.39, 1.74, 7.68, repro,
2002-01-19,-5.28, 0.31, 9.84, 2.29, 1.67, 7.30, repro,
2002-01-20,-5.81, -0.69, 16.55, 2.37, 1.69, 7.43, repro,
2002-01-21,-6.35, -0.41, 11.13, 2.32, 1.67, 7.42, repro,
2002-01-22,-6.39, -0.12, 5.95, 2.41, 1.83, 7.99, repro,
2002-01-23,-6.89, 0.27, 2.42, 2.30, 1.67, 7.38, repro,
2002-01-24,-8.54, -0.19, 5.09, 2.31, 1.68, 7.48, repro,
2002-01-25,-5.96, 0.13, 8.25, 2.54, 1.80, 7.85, repro,
2002-01-26,-6.45, -0.13, 10.78, 2.33, 1.67, 7.43, repro,
2002-01-27,-5.16, 1.56, -1.83, 2.34, 1.69, 7.56, repro,
2002-01-28,-6.05, 0.25, 0.29, 2.31, 1.73, 7.58, repro,
2002-01-29,-6.51, 0.68, -7.39, 2.46, 1.74, 7.77, repro,
2002-01-30,-5.44, -0.17, -4.96, 2.38, 1.76, 7.69, repro,
2002-01-31,-6.90, 0.37, -2.05, 2.32, 1.70, 7.50, repro,
2002-02-01,-7.69, -0.24, -1.00, 2.36, 1.72, 7.60, repro,
2002-02-02,-4.41, 0.11, -2.13, 2.56, 1.93, 8.41, repro,
2002-02-03,-5.71, 0.45, -2.13, 2.42, 1.74, 7.81, repro,
2002-02-04,-6.39, -0.80, 3.86, 2.52, 1.81, 7.88, repro,
2002-02-05,-6.38, -0.21, -2.88, 2.55, 1.89, 8.23, repro,
2002-02-06,-5.54, 0.23, 3.52, 2.44, 1.77, 7.95, repro,
2002-02-07,-5.66, 0.43, 7.41, 2.60, 1.86, 8.24, repro,
2002-02-08,-4.59, 0.23, 2.96, 2.47, 1.82, 8.08, repro,
2002-02-09,-5.82, 0.16, -7.80, 2.39, 1.73, 7.61, repro,
2002-02-10,-5.10, 0.72, -13.31, 2.41, 1.77, 7.75, repro,
2002-02-11,-5.42, -0.04, -13.01, 2.47, 1.77, 7.89, repro,
2002-02-12,-5.74, 0.50, -7.35, 2.54, 1.83, 8.02, repro,
2002-02-13,-4.93, -0.43, -10.56, 3.27, 2.61, 11.45, repro,
2002-02-14,-4.26, -0.65, 1.76, 2.71, 2.01, 8.49, repro,
2002-02-15,-5.22, -0.80, -3.68, 2.57, 1.94, 8.33, repro,
2002-02-16,-5.63, -0.46, 1.24, 2.50, 1.81, 8.03, repro,
2002-02-17,-5.40, -0.36, 4.70, 2.37, 1.78, 7.91, repro,
2002-02-18,-6.57, 1.09, -1.88, 2.59, 1.95, 8.59, repro,
2002-02-19,-6.74, 0.27, 9.49, 2.54, 1.88, 8.32, repro,
2002-02-20,-6.09, 0.22, 2.31, 2.45, 1.81, 8.04, repro,
2002-02-21,-6.57, 0.62, -5.46, 2.59, 1.86, 8.43, repro,
2002-02-22,-5.21, -0.78, -0.44, 2.44, 1.80, 8.02, repro,
2002-02-23,-7.47, 0.93, -0.05, 2.32, 1.74, 7.69, repro,
2002-02-24,-4.66, 2.18, -2.49, 2.47, 1.81, 8.05, repro,
2002-02-25,-4.60, -0.03, -4.56, 2.39, 1.77, 7.75, repro,
2002-02-26,-4.75, -0.67, -14.19, 2.52, 1.89, 8.33, repro,
2002-02-27,-4.07, -0.34, -10.13, 2.65, 2.01, 8.73, repro,
2002-02-28,-5.40, -0.10, -4.17, 2.50, 1.88, 8.36, repro,
2002-03-01,-5.40, -1.53, -9.70, 2.51, 1.87, 8.41, repro,
2002-03-02,-6.84, 1.14, -7.71, 2.31, 1.76, 7.72, repro,
2002-03-03,-5.75, -0.03, -13.24, 2.38, 1.83, 8.10, repro,
2002-03-04,-6.34, -0.53, -4.88, 2.26, 1.66, 7.41, repro,
2002-03-05,-5.30, 0.07, -6.42, 2.31, 1.71, 7.68, repro,
2002-03-06,-5.36, 0.31, -3.23, 2.31, 1.77, 7.77, repro,
2002-03-07,-5.39, 0.66, 1.97, 2.29, 1.71, 7.60, repro,
2002-03-08,-5.65, 1.48, -0.64, 2.30, 1.71, 7.65, repro,
2002-03-09,-7.34, 0.88, -7.89, 2.31, 1.71, 7.63, repro,
2002-03-10,-6.64, 0.20, -0.99, 2.30, 1.68, 7.62, repro,
2002-03-11,-7.62, 0.18, 5.13, 2.33, 1.75, 7.88, repro,
2002-03-12,-7.38, 0.10, 6.01, 2.26, 1.69, 7.53, repro,
2002-03-13,-6.14, 0.15, 4.20, 2.28, 1.70, 7.63, repro,
2002-03-14,-6.13, 1.00, 2.72, 2.27, 1.64, 7.40, repro,
2002-03-15,-7.29, 0.86, 0.30, 2.36, 1.72, 7.80, repro,
2002-03-16,-6.18, 1.36, -1.68, 2.27, 1.67, 7.55, repro,
2002-03-17,-5.92, 1.50, -6.94, 2.29, 1.71, 7.70, repro,
2002-03-18,-5.93, 0.49, -0.38, 2.44, 1.84, 8.26, repro,
2002-03-19,-5.85, 1.04, 1.27, 2.34, 1.72, 7.70, repro,
2002-03-20,-4.30, 0.49, -4.87, 2.37, 1.71, 7.73, repro,
2002-03-21,-5.53, 0.61, -12.97, 2.33, 1.75, 7.80, repro,
2002-03-22,-6.12, 1.32, -9.82, 2.33, 1.72, 7.77, repro,
2002-03-23,-6.09, 3.25, -2.20, 2.63, 1.97, 8.64, repro,
2002-03-24,-5.03, 0.46, -5.70, 2.65, 2.01, 9.27, repro,
2002-03-25,-6.53, 1.92, -2.89, 2.43, 1.72, 7.82, repro,
2002-03-26,-4.99, -0.40, -11.40, 2.79, 2.08, 9.13, repro,